[[{"header":{"parameterUnit":"m.s-1","parameterCategory":1,"la1":30.2991,"la2":30.254,"lo1":-89.0895,"lo2":-89.0444,"dy":0.0017,"dx":0.0017,"nx":28,"ny":28,"refTime":"2023-09-06T03:00:00:Z","depth":0,"parameterNumber":2,"parameterNumberName":"U-component_of_WINDS"},"data":[0,0,0,0,0,0,0,0,0,0,0,0,0,0,0,0,0,0,0,0,0,0,0,0,0,0,0,0,0,0,0,0,0,0,0,0,0,0,0,0,0,0,0,0,0,0,0,0,0,0,0,0,0,0,0,0,0,0,2.1554,2.1559,0,2.1971,2.1976,2.1981,2.2168,2.2168,2.2167,2.2167,2.2599,2.261,2.2622,0,0,0,0,0,0,0,0,0,0,0,0,0,2.0923,2.0933,2.1554,2.1559,2.1564,2.1971,2.1976,2.1982,2.2168,2.2168,2.2167,2.2167,2.2595,2.2609,2.2623,0,0,0,0,0,0,0,0,0,0,0,0,0,2.1254,2.0937,2.1553,2.1706,2.1724,2.1969,2.1977,2.1984,2.2169,2.2168,2.2167,2.2166,2.259,2.2608,2.2625,2.2751,0,0,2.268,2.2688,0,0,0,0,0,0,0,0,2.1235,2.1277,2.1678,2.1696,2.1716,2.2017,2.1912,2.2241,2.2169,2.2,2.2167,2.2166,2.2406,2.2439,2.2519,2.2771,2.279,2.2682,2.2693,2.27,2.2705,0,0,0,0,0,0,0,2.1212,2.126,2.1719,2.1684,2.1707,2.1755,2.1802,2.1976,2.2202,2.2015,2.2029,2.2076,2.2416,2.2501,2.2531,2.2796,2.2681,2.2697,2.2708,2.2715,2.3173,2.3174,0,0,0,0,0,0,2.1163,2.124,2.1706,2.1732,2.1469,2.1767,2.1819,2.1921,2.2201,2.2243,2.2076,2.2083,2.2471,2.251,2.2547,2.2713,2.27,2.2717,2.2727,2.3172,2.3173,2.3175,0,0,0,0,0,0,2.1149,2.1203,2.1689,2.149,2.1555,2.1779,2.1892,2.193,2.2015,2.2247,2.2289,2.2121,2.2472,2.2521,2.2699,2.2731,2.2725,2.2741,2.317,2.3172,2.3174,2.3045,0,0,0,0,0,0,2.113,2.1197,2.1246,2.149,2.1565,2.1832,2.1894,2.1939,2.2045,2.2058,2.23,2.234,2.2475,2.2671,2.2716,2.2755,2.2755,2.3168,2.3171,2.3173,2.3048,2.3043,2.3038,0,0,0,0,0,2.1107,2.1194,2.1247,2.1303,2.1631,2.1834,2.1878,2.203,2.2047,2.2099,2.2248,2.2332,2.2719,2.2687,2.274,2.2785,2.3167,2.317,2.3173,2.305,2.3044,2.3038,0,0,0,0,0,0,2.095,2.1229,2.1291,2.1459,2.1621,2.1865,2.1936,2.2019,2.2181,2.2186,2.237,2.2424,2.2585,2.2703,2.2662,2.2921,2.2951,2.2964,2.2838,2.2835,2.283,2.2799,2.277,0,0,0,0,0,2.0935,2.1075,2.1311,2.1437,2.1515,2.171,2.1805,2.1908,2.2084,2.2154,2.2316,2.2484,2.2645,2.2746,2.2906,2.3065,2.3121,2.3122,2.3117,2.3112,2.3122,2.3216,2.3219,2.3185,2.3185,2.3185,0,0,2.0906,2.1075,2.1153,2.141,2.1548,2.169,2.1767,2.1914,2.2022,2.2177,2.2354,2.2478,2.2679,2.2847,2.293,2.2951,2.3144,2.3116,2.311,2.3124,2.322,2.3223,2.3225,2.3187,2.3187,2.3187,0,0,2.0925,2.1066,2.1187,2.1323,2.1529,2.1659,2.1687,2.1918,2.2006,2.2186,2.2305,2.2437,2.2708,2.2846,2.2952,2.3021,2.3105,2.3068,2.3044,2.3133,2.3136,2.3139,2.3165,2.3172,2.3077,2.3077,2.3077,0,2.0863,2.1081,2.1239,2.1379,2.1489,2.1633,2.1757,2.1882,2.213,2.2204,2.2223,2.2566,2.2711,2.2914,2.2931,2.3011,2.3051,2.3042,2.3122,2.3127,2.3133,2.316,2.3169,2.3071,2.3072,2.3072,2.3073,0,2.0995,2.1143,2.1216,2.145,2.1568,2.1699,2.1879,2.198,2.2072,2.2199,2.2381,2.256,2.2758,2.2814,2.2906,2.3031,2.3037,2.3086,2.312,2.3128,2.3156,2.3167,2.3063,2.3065,2.3067,2.3068,0,0,2.093,2.1247,2.1272,2.138,2.1617,2.1736,2.1874,2.2066,2.215,2.2316,2.2437,2.2662,2.2709,2.2829,2.2938,2.3016,2.306,2.3057,2.3065,2.3052,2.3209,2.3171,2.318,2.3117,2.3119,2.3121,2.3193,0,2.0982,2.1234,2.138,2.1572,2.1712,2.185,2.1971,2.213,2.2252,2.239,2.2526,2.2683,2.2733,2.2806,2.2889,2.3037,2.3094,2.3034,2.3233,2.3238,2.3179,2.3195,2.3155,2.3214,2.3204,2.3206,2.3208,0,2.1078,2.1239,2.1444,2.1665,2.173,2.1835,2.2023,2.2152,2.2336,2.2419,2.2551,2.266,2.2813,2.2831,2.3045,2.3,2.309,2.3175,2.3181,2.3207,2.3224,2.3222,2.3236,2.3245,2.3227,2.3225,2.3224,0,2.101,2.1279,2.1437,2.1525,2.1786,2.1857,2.197,2.2152,2.2258,2.2423,2.2494,2.2674,2.2773,2.2911,2.3066,2.3065,2.3264,2.3296,2.3339,2.3335,2.3376,2.3372,2.3406,2.3431,2.3431,2.3431,2.343,0,2.1055,2.1176,2.141,2.1507,2.1646,2.1812,2.1947,2.2071,2.2231,2.2356,2.2487,2.2602,2.2799,2.2938,2.306,2.3218,2.3262,2.3335,2.3367,2.3325,2.3315,2.3387,2.3388,2.3433,2.3433,2.3432,2.3432,0,2.1004,2.1166,2.1347,2.1578,2.164,2.1732,2.1932,2.2032,2.216,2.2316,2.2362,2.2564,2.2735,2.2902,2.3132,2.3214,2.3372,2.3413,2.3309,2.3327,2.336,2.3355,2.3444,2.3464,2.3472,2.3472,2.3471,0,2.1023,2.1119,2.136,2.1451,2.156,2.1707,2.1815,2.1982,2.209,2.2305,2.238,2.2559,2.2712,2.2979,2.3147,2.3324,2.3371,2.339,2.3399,2.3353,2.3373,2.3366,2.3377,2.3385,2.3384,2.3384,2.3383,0,2.1039,2.1114,2.1263,2.1441,2.1566,2.1714,2.1867,2.1935,2.2133,2.2247,2.2422,2.254,2.2773,2.2951,2.3147,2.3265,2.3358,2.3378,2.3398,2.3357,2.3293,2.3329,2.3297,2.3376,2.3377,2.3377,2.3378,2.3378,2.1026,2.1117,2.13,2.1462,2.1594,2.1734,2.1839,2.1979,2.2127,2.2329,2.2419,2.2595,2.2777,2.3049,2.3166,2.3307,2.3331,2.3359,2.3366,2.3371,2.3362,2.3268,2.3343,2.3344,2.3344,2.3345,2.3345,0,2.1049,2.1173,2.1321,2.153,2.1657,2.173,2.1903,2.2006,2.2158,2.2319,2.2466,2.2667,2.2839,2.3019,2.3203,2.3281,2.3328,2.3324,2.3321,2.3347,2.333,2.3295,2.3283,2.3283,2.3283,2.3283,2.3283,2.3283,2.1077,2.1235,2.1331,2.1556,2.1681,2.1852,2.1945,2.2075,2.2204,2.2421,2.2564,2.268,2.2849,2.3045,2.3207,2.3256,2.3318,2.3302,2.3362,2.3344,2.3348,2.3352,2.332,2.3313,2.3313,2.3368,2.3369,2.3369]},{"header":{"parameterUnit":"m.s-1","parameterCategory":1,"la1":30.2991,"la2":30.254,"lo1":-89.0895,"lo2":-89.0444,"dy":0.0017,"dx":0.0017,"nx":28,"ny":28,"refTime":"2023-09-06T03:00:00:Z","depth":0,"parameterNumber":3,"parameterNumberName":"V-component_of_WINDS"},"data":[0,0,0,0,0,0,0,0,0,0,0,0,0,0,0,0,0,0,0,0,0,0,0,0,0,0,0,0,0,0,0,0,0,0,0,0,0,0,0,0,0,0,0,0,0,0,0,0,0,0,0,0,0,0,0,0,0,0,1.7735,1.7735,0,1.7779,1.7779,1.778,1.7735,1.7733,1.7731,1.773,1.778,1.7783,1.7786,0,0,0,0,0,0,0,0,0,0,0,0,0,1.7619,1.7621,1.7735,1.7735,1.7736,1.7778,1.7779,1.778,1.7735,1.7733,1.7731,1.7729,1.7779,1.7782,1.7786,0,0,0,0,0,0,0,0,0,0,0,0,0,1.7667,1.7622,1.7735,1.7719,1.7718,1.7778,1.7779,1.778,1.7736,1.7733,1.773,1.7728,1.7778,1.7782,1.7787,1.7867,0,0,1.78,1.7802,0,0,0,0,0,0,0,0,1.7664,1.7671,1.7721,1.772,1.7719,1.7748,1.7756,1.7809,1.7736,1.7729,1.773,1.7727,1.7772,1.7777,1.7791,1.7869,1.7871,1.7801,1.7803,1.7805,1.7806,0,0,0,0,0,0,0,1.7661,1.7669,1.7752,1.7721,1.772,1.7711,1.7715,1.7766,1.7765,1.7729,1.7726,1.7732,1.7771,1.7787,1.7792,1.7872,1.78,1.7804,1.7807,1.7809,1.8021,1.8024,0,0,0,0,0,0,1.7658,1.7666,1.7751,1.7754,1.7684,1.7715,1.772,1.7742,1.7764,1.7765,1.7734,1.773,1.778,1.7787,1.7793,1.7891,1.7805,1.7809,1.7812,1.8018,1.8022,1.8025,0,0,0,0,0,0,1.7656,1.7666,1.7749,1.7709,1.7719,1.772,1.7745,1.7744,1.776,1.7767,1.7768,1.775,1.7779,1.7787,1.7849,1.7892,1.7811,1.7815,1.8015,1.8019,1.8024,1.8087,0,0,0,0,0,0,1.7653,1.7666,1.7695,1.771,1.7721,1.7803,1.7748,1.7747,1.7767,1.7761,1.7783,1.7784,1.7777,1.7843,1.7854,1.7897,1.7819,1.8011,1.8017,1.8022,1.8081,1.8093,1.8103,0,0,0,0,0,1.7649,1.7712,1.7697,1.7707,1.7757,1.7805,1.7812,1.7802,1.777,1.7801,1.7806,1.7783,1.7885,1.7849,1.7861,1.7907,1.8008,1.8015,1.8022,1.8076,1.809,1.8103,0,0,0,0,0,0,1.7703,1.7713,1.7697,1.7766,1.7785,1.7798,1.7836,1.7817,1.7847,1.7841,1.7828,1.7833,1.79,1.7909,1.7869,1.7987,1.7942,1.7951,1.7979,1.7993,1.8004,1.8002,1.7823,0,0,0,0,0,1.7723,1.7759,1.7766,1.7827,1.7837,1.7835,1.7855,1.7845,1.7865,1.7874,1.7883,1.7906,1.7943,1.7968,1.8002,1.8081,1.8087,1.8118,1.8129,1.8138,1.8148,1.8193,1.8208,1.8047,1.8047,1.8047,0,0,1.7765,1.7775,1.7799,1.7838,1.7852,1.7892,1.7842,1.7886,1.7916,1.7881,1.7941,1.7948,1.7972,1.8044,1.8076,1.8054,1.8193,1.8146,1.8154,1.8158,1.8201,1.8217,1.823,1.8052,1.8051,1.805,0,0,1.7862,1.7872,1.7924,1.7939,1.7959,1.7958,1.797,1.7986,1.7989,1.8048,1.8023,1.806,1.8123,1.8142,1.816,1.8265,1.8246,1.8276,1.8336,1.838,1.8393,1.8404,1.8445,1.8459,1.8285,1.8285,1.8285,0,1.7913,1.797,1.7954,1.8001,1.802,1.7987,1.8043,1.8057,1.8089,1.8105,1.8078,1.8158,1.8172,1.8249,1.8274,1.8288,1.8305,1.8275,1.8391,1.8403,1.8413,1.8452,1.8467,1.8289,1.8288,1.8288,1.8288,0,1.8032,1.8073,1.8113,1.8144,1.8167,1.8217,1.8211,1.8237,1.8225,1.8227,1.8289,1.8303,1.8341,1.8358,1.8347,1.8434,1.842,1.8393,1.8348,1.8433,1.8469,1.8484,1.8294,1.8293,1.8292,1.8291,0,0,1.8168,1.8188,1.8204,1.8218,1.8238,1.827,1.832,1.8355,1.838,1.8402,1.8446,1.85,1.8475,1.8495,1.8486,1.8524,1.8611,1.8493,1.8493,1.8518,1.8712,1.8735,1.8752,1.8597,1.8599,1.8601,1.8711,0,1.8269,1.8353,1.8341,1.8424,1.8463,1.8432,1.8476,1.8494,1.8497,1.8532,1.8535,1.8575,1.8537,1.855,1.8586,1.8593,1.865,1.8584,1.8641,1.8643,1.864,1.8771,1.8795,1.8898,1.8725,1.8727,1.8729,0,1.8398,1.8424,1.8511,1.8527,1.8543,1.8582,1.8615,1.8647,1.8668,1.8667,1.869,1.8674,1.8726,1.8678,1.8751,1.8707,1.8729,1.8735,1.8739,1.8747,1.8694,1.8786,1.893,1.8947,1.8751,1.8749,1.8747,0,1.8493,1.855,1.8609,1.8622,1.8641,1.867,1.8679,1.8697,1.872,1.8749,1.8764,1.8799,1.8819,1.8847,1.8842,1.8807,1.8919,1.8869,1.8923,1.8924,1.8951,1.895,1.9105,1.8959,1.8959,1.8959,1.8958,0,1.8609,1.8664,1.8652,1.869,1.8751,1.8736,1.8798,1.8804,1.8821,1.886,1.8835,1.8873,1.8862,1.8901,1.8897,1.8961,1.8969,1.8972,1.8972,1.8977,1.8977,1.8994,1.8989,1.8963,1.8962,1.8961,1.896,0,1.8727,1.872,1.8784,1.8796,1.8801,1.8846,1.8858,1.8894,1.8893,1.8944,1.8955,1.8956,1.9,1.8997,1.9046,1.9044,1.9124,1.9113,1.9117,1.9116,1.9172,1.9168,1.9346,1.937,1.9205,1.9206,1.9208,0,1.8803,1.8845,1.8861,1.8885,1.8896,1.8935,1.8958,1.8945,1.897,1.8998,1.9032,1.9072,1.9105,1.9177,1.9184,1.9222,1.9214,1.9274,1.922,1.9225,1.922,1.9219,1.9225,1.9286,1.9288,1.9289,1.929,0,1.894,1.8935,1.8968,1.9001,1.9029,1.9054,1.9077,1.9099,1.9088,1.9119,1.9162,1.9188,1.9238,1.9281,1.9317,1.9329,1.931,1.9306,1.9322,1.933,1.9332,1.9336,1.915,1.9304,1.9302,1.9301,1.9301,1.93,1.9043,1.9079,1.9097,1.9135,1.9151,1.9173,1.9208,1.9212,1.9248,1.9287,1.9277,1.9328,1.9349,1.9396,1.9411,1.9452,1.9431,1.9453,1.9459,1.9465,1.9474,1.9322,1.9459,1.9458,1.9458,1.9457,1.9457,0,1.9182,1.9192,1.9227,1.926,1.929,1.9266,1.929,1.9319,1.9363,1.9383,1.9415,1.9467,1.9508,1.9518,1.9558,1.9589,1.9582,1.9601,1.96,1.9604,1.9488,1.9473,1.9606,1.9606,1.9606,1.9606,1.9606,1.9606,1.9259,1.932,1.9317,1.9387,1.9397,1.9445,1.9461,1.9483,1.9499,1.9558,1.9591,1.9596,1.9613,1.9654,1.9692,1.9694,1.9712,1.9736,1.9735,1.9627,1.9612,1.9598,1.9584,1.9738,1.9739,1.9848,1.9849,1.9849]}]]